196P/Tichy (2008)

Japanese version
Home page
Total 5,708 html files since Dec. 4, 1995
Updated on April 4, 2008

---------------------------------------------------------------------

* Profile

Designation 196P/2008 C2
Recovery Date February 3, 2008
Magnitude 18.8 mag
Recoverers M. Tichy and J. Ticha (Klet Observatory)

* Orbital Elements

                    Epoch = 2008 Feb. 24.0 TT
     T = 2008 Feb.  7.1544 TT         Peri. =  11.7159
     e = 0.433828                     Node  =  24.3420  2000.0
     q = 2.137870 AU                  Incl. =  19.3785
       a =  3.776006 AU    n = 0.1343244    P =   7.34 years

* Magnitudes Graph

        m1 = 12.5 + 5 log d + 15.0 log r

---------------------------------------------------------------------

The orbital elements are printed on IAUC 8917.
The magnitudes graphs are made with Comet for Windows.

---------------------------------------------------------------------

Copyright(C) 1995-2007 Seiichi Yoshida (comet@aerith.net). All rights reserved.